Location: Bats
(43.6587°N, 0.4584°W)
Time: 05:43:43
(UTC+00:00)

Cosmos 1656 - Pass Details

Date: 12 January 2026
Orbit: 797 x 847 km, 71.1° (Epoch: 10 February)

Event Time Altitude Azimuth Distance (km) Brightness Sun altitude
Rises 18:28:52 0° 341° (NNW) 3,399 6.9 -17.9°
Reaches altitude 10° 18:31:33 10° 350° (N) 2,454 6.1 -18.4°
Maximum altitude 18:36:40 35° 56° (NE) 1,315 4.2 -19.3°
Enters shadow 18:36:58 35° 62° (ENE) 1,319 4.2 -19.4°
